Weather History for South Bend, IN

Change the Weather History Date:

Sunday, September 14, 2014

  Actual Average Record
Temperature  
Mean Temperature 54 °F 65 °F  
Max Temperature 65 °F 75 °F 98 °F (1897)
Min Temperature 43 °F 55 °F 36 °F (1899)
Degree Days  
Heating Degree Days 11 3  
Month to date heating degree days 45 26  
Since 1 July heating degree days 73 44  
Cooling Degree Days 0 3  
Month to date cooling degree days 64 55  
Year to date cooling degree days 757 737  
Growing Degree Days 4 (Base 50)    
Moisture  
Dew Point 43 °F    
Average Humidity 68    
Maximum Humidity 93    
Minimum Humidity 43    
Precipitation  
Precipitation 0.00 in 0.11 in 4.07 in (2008)
Month to date precipitation 2.28 1.64  
Year to date precipitation 30.49 26.91  
Sea Level Pressure  
Sea Level Pressure 30.30 in    
Wind  
Wind Speed 3 mph (SSW)    
Max Wind Speed 14 mph    
Max Gust Speed 18 mph    
Visibility 10 miles    
Events      
T = Trace of Precipitation, MM = Missing Value Source: NWS Daily Summary

Daily Weather History Graph

Daily Weather History Graph

Search for Another Location

Airport:

Trip Planner

Search our weather history database for the weather conditions in past years. The results will help you decide how hot, cold, wet, or windy it might be!

Date:

Astronomy

Sep. 14, 2014 Rise Set
Actual Time 7:24 AM EDT 7:56 PM EDT
Civil Twilight 6:56 AM EDT 8:24 PM EDT
Nautical Twilight 6:23 AM EDT 8:57 PM EDT
Astronomical Twilight 5:49 AM EDT 9:31 PM EDT
Moon 11:43 PM EDT (9/14) 1:34 PM EDT (9/14)
Length of Visible Light 13h 27m
Length of Day
12h 31m
Waning Gibbous, 64% of the Moon is Illuminated
Sep 14
Waning Gibbous
Sep 15
Last Quarter
Sep 24
New
Oct 1
First Quarter
Oct 8
Full

Hourly Weather History & Observations

Time (EDT) Temp. Windchill Dew Point Humidity Pressure Visibility Wind Dir Wind Speed Gust Speed Precip Events Conditions
12:54 AM 45.0 °F - 41.0 °F 86% 30.35 in 10.0 mi Calm Calm - N/A   Clear
1:54 AM 43.0 °F 41.3 °F 39.9 °F 89% 30.36 in 10.0 mi NNE 3.5 mph - N/A   Partly Cloudy
2:54 AM 45.0 °F - 42.1 °F 90% 30.36 in 10.0 mi Calm Calm - N/A   Overcast
3:54 AM 46.9 °F - 44.1 °F 90% 30.35 in 10.0 mi Calm Calm - N/A   Overcast
4:54 AM 48.0 °F - 44.1 °F 86% 30.35 in 10.0 mi Calm Calm - N/A   Overcast
5:54 AM 48.9 °F - 45.0 °F 86% 30.35 in 10.0 mi Calm Calm - N/A   Overcast
6:54 AM 48.9 °F - 45.0 °F 86% 30.34 in 10.0 mi SE 3.5 mph - N/A   Overcast
7:54 AM 50.0 °F - 45.0 °F 83% 30.35 in 10.0 mi SE 4.6 mph - N/A   Overcast
8:54 AM 51.1 °F - 45.0 °F 80% 30.34 in 10.0 mi South 4.6 mph - N/A   Overcast
9:54 AM 53.1 °F - 46.0 °F 77% 30.35 in 10.0 mi South 3.5 mph - N/A   Mostly Cloudy
10:54 AM 55.9 °F - 46.0 °F 69% 30.35 in 10.0 mi SSW 5.8 mph - N/A   Overcast
11:54 AM 59.0 °F - 39.9 °F 49% 30.34 in 10.0 mi WSW 8.1 mph - N/A   Mostly Cloudy
12:54 PM 60.1 °F - 41.0 °F 49% 30.33 in 10.0 mi SSW 8.1 mph - N/A   Overcast
1:54 PM 61.0 °F - 41.0 °F 48% 30.30 in 10.0 mi WSW 6.9 mph - N/A   Mostly Cloudy
2:54 PM 63.0 °F - 42.1 °F 46% 30.27 in 10.0 mi North - - N/A   Partly Cloudy
3:54 PM 64.0 °F - 41.0 °F 43% 30.24 in 10.0 mi SSW 8.1 mph 17.3 mph N/A   Partly Cloudy
4:54 PM 64.0 °F - 41.0 °F 43% 30.22 in 10.0 mi SW 6.9 mph - N/A   Partly Cloudy
5:54 PM 64.0 °F - 41.0 °F 43% 30.22 in 10.0 mi SSW 4.6 mph - N/A   Clear
6:54 PM 64.0 °F - 42.1 °F 45% 30.21 in 10.0 mi WSW 4.6 mph - N/A   Clear
7:54 PM 61.0 °F - 45.0 °F 56% 30.22 in 10.0 mi SSW 3.5 mph - N/A   Clear
8:54 PM 54.0 °F - 46.0 °F 75% 30.22 in 10.0 mi Calm Calm - N/A   Clear
9:54 PM 52.0 °F - 46.0 °F 80% 30.22 in 10.0 mi Calm Calm - N/A   Clear
10:54 PM 50.0 °F - 45.0 °F 83% 30.21 in 10.0 mi Calm Calm - N/A   Clear
11:54 PM 51.1 °F - 46.0 °F 83% 30.21 in 10.0 mi Calm Calm - N/A   Clear